Location: New Mesquite
(33.1168°N, 96.4336°W)
Time: 17:08:35
(UTC+00:00)

CZ-2C R/B - Pass Details

Date: 29 June 2022
Orbit: 784 x 871 km, 98.2° (Epoch: 09 August)

Event Time Altitude Azimuth Distance (km) Brightness Sun altitude
Rises 09:36:37 0° 120° (ESE) 3,394 6.0 -18.1°
Reaches altitude 10° 09:39:58 10° 98° (E) 2,479 5.6 -17.6°
Maximum altitude 09:43:01 15° 64° (ENE) 2,140 5.8 -17.2°
Drops below altitude 10° 09:46:05 10° 31° (NNE) 2,508 6.4 -16.7°
Sets 09:49:30 0° 9° (N) 3,458 6.8 -16.2°
